PALISADE (44634 NORAD) Tracking and Keplerian Element Data

This shows tracking and keplerian element data for the satellite.

Feedback or suggestion? Click here.




ElementValue
Catalog44634
NamePALISADE
Epoch Orbit371
Epoch Day318.30686276
Epoch Year2019
RAAN37.99
Inclination87.897
Eccentricity0.0010641
Argument of Perigee55.0744
Mean Anonmoly305.1383
Mean Motion13.11819199
Decay Rate2.91E-06
L11 44634U 19069A 19318.30686276 .00000291 00000-0 78148-3 0 9999
L22 44634 87.8970 37.9900 0010641 55.0744 305.1383 13.11819199 3714

Live tracking and technical data element details for PALISADE (NORAD 44634). PALISADE can be tracked NOW for your location showing map with azimuth and elevation plus other details from your city location.

Track the satellite on the map from your city or location and see movement details for azimuth, elevation, latitude, longitude, range, height, and movement on the map or in text.







IsCatalogInMostPopularTable: catalog: 44634, numindb: 15
Update: records affected: 1



GetName: 44634 PALISADE

Hit Count: updated at: Thu, 05 Dec 2019 17:58:03 GMT